Theta_e
340 341 340 340 339 339 340 339 340 340 340 339 339 339 339 339 339 338 339 338 339 339 338 338 337 337 337 337 337 336 332 331 331 330 328 329 330 330 329 329 330 331 332 332 332 332 332 332 332 331 330 331 331 331 331 331 329 329 328 329 330 330 330 330 330 331 331 331 331 331 332 332 332 331 331 330 328 329 328 326 329 330 330 330 329
339 340 339 339 339 339 340 339 340 340 340 340 339 339 339 338 338 338 339 339 339 339 338 338 337 336 337 337 337 337 335 334 333 332 331 329 328 329 330 331 332 333 334 334 334 334 334 333 333 333 333 332 332 331 332 332 331 331 330 330 331 331 330 330 330 331 331 331 330 331 332 331 331 331 331 329 327 329 329 327 330 331 330 330 330
338 338 338 339 339 339 339 339 340 339 340 339 337 337 337 337 338 338 338 338 338 337 338 338 337 336 336 336 336 337 337 336 335 335 334 332 330 330 329 329 331 333 334 335 335 335 335 334 334 334 334 334 334 333 333 333 333 333 332 331 331 331 331 331 330 330 331 331 330 331 332 332 331 331 331 330 328 329 329 328 330 331 331 330 330
335 336 336 337 338 339 339 339 339 339 339 338 338 337 336 336 337 337 337 337 337 337 337 337 337 337 336 336 336 336 336 335 335 335 334 333 333 333 331 328 328 331 333 334 334 334 333 333 333 333 333 333 333 334 333 334 334 334 333 332 332 332 332 331 330 330 331 332 331 331 332 332 331 330 330 330 329 329 329 328 329 330 331 330 330
333 334 334 336 337 338 338 338 337 337 338 337 337 336 336 336 336 337 337 337 337 337 337 337 337 337 337 336 336 335 335 335 334 334 335 335 334 334 335 333 332 332 332 333 334 334 334 334 333 332 332 332 332 334 334 334 333 334 334 334 333 333 333 332 331 331 330 331 331 331 331 330 330 330 329 329 329 329 329 328 327 329 330 330 330
331 332 333 334 336 336 336 337 336 336 335 335 334 334 334 334 334 335 335 336 336 337 337 337 337 337 337 336 336 335 335 335 335 335 336 335 334 334 334 334 334 333 333 333 334 334 335 335 334 333 333 333 333 333 333 332 332 332 332 332 332 332 333 333 332 332 331 331 331 331 330 330 329 329 329 329 329 329 329 329 328 327 328 329 329
328 330 331 332 333 334 334 334 334 334 333 332 332 332 333 332 332 332 333 334 335 335 336 336 337 336 336 336 336 335 335 335 336 336 336 335 334 333 333 333 333 333 333 334 335 334 334 335 334 334 334 334 332 330 331 331 331 332 331 330 330 332 333 333 332 332 332 332 331 330 330 330 330 329 328 328 329 329 329 329 328 327 327 328 329
326 327 328 330 331 331 331 331 331 332 331 331 331 331 331 330 330 330 330 331 332 333 333 334 335 335 335 336 336 335 335 335 335 335 335 334 334 333 333 333 333 333 333 333 334 334 334 334 334 334 334 334 332 331 331 331 331 332 332 331 331 332 332 332 332 332 332 332 331 330 330 330 330 329 328 328 328 328 328 328 328 328 328 328 328
324 324 325 328 329 327 327 328 328 328 329 330 330 329 328 327 327 327 327 327 328 329 330 331 332 334 335 335 334 334 333 333 334 334 334 334 334 333 332 332 333 333 333 333 334 333 333 333 333 334 334 333 333 332 332 332 332 332 332 332 332 332 332 332 333 332 332 332 332 331 330 330 330 329 329 329 328 327 327 327 327 328 329 329 329
322 322 323 325 325 324 324 325 324 324 325 326 326 325 324 324 324 324 324 324 325 326 327 328 329 331 333 334 334 333 333 332 332 333 333 333 333 333 333 333 333 333 333 333 333 333 332 333 333 333 333 332 332 332 332 332 332 332 332 332 333 332 331 332 333 332 332 332 332 332 331 330 330 329 329 329 328 327 327 326 325 326 327 328 328
322 322 321 322 322 321 322 322 322 322 323 323 323 322 321 321 322 321 321 321 322 323 324 325 326 328 330 332 333 333 332 331 331 331 332 332 332 332 332 332 332 332 332 332 333 333 332 332 332 333 333 332 332 331 332 332 332 332 332 332 332 332 332 332 332 333 332 331 331 332 331 330 330 329 329 329 328 327 326 326 324 324 326 327 328
321 321 321 321 320 320 320 320 321 321 320 320 320 320 319 319 319 320 319 320 320 321 322 322 323 325 326 328 329 330 330 330 330 330 330 330 331 331 331 331 331 330 330 331 331 332 332 332 332 332 333 332 332 331 331 331 331 332 332 331 331 332 332 331 331 332 332 331 330 331 331 331 330 329 328 328 328 327 326 326 325 325 326 328 328
320 320 320 320 319 319 319 319 319 319 318 318 318 318 318 318 319 319 319 318 318 319 320 320 321 322 322 323 324 325 326 326 326 327 327 328 329 329 329 329 329 329 329 329 329 330 330 330 331 331 331 331 331 331 331 331 331 331 331 331 331 331 331 331 331 331 331 331 331 331 331 331 330 329 328 328 328 328 327 327 326 325 325 326 328
319 319 319 319 319 319 318 318 318 317 317 317 317 317 318 318 318 318 318 318 318 318 318 318 319 320 320 321 321 321 322 323 323 324 324 325 326 327 328 328 328 328 328 328 329 329 329 330 330 331 331 330 330 330 330 330 330 330 330 331 331 331 331 331 331 331 331 330 331 331 331 330 330 329 328 328 329 329 328 327 327 326 325 326 328
319 318 318 318 318 318 317 317 317 317 317 317 317 317 317 318 318 318 317 317 317 317 317 317 317 317 318 319 319 319 320 321 321 322 322 323 324 325 326 327 327 327 328 328 328 329 330 330 330 330 330 330 330 330 329 329 328 328 329 330 330 331 331 330 330 331 331 330 330 330 330 330 330 329 328 329 329 329 328 327 327 326 327 328 328
317 317 317 317 317 317 317 317 317 317 316 316 316 317 317 317 317 317 317 317 317 317 317 316 316 316 316 317 318 318 318 318 319 320 321 322 323 323 324 324 326 327 327 327 328 329 329 329 329 329 329 329 329 329 328 328 327 327 328 328 329 330 330 330 330 330 331 330 331 331 330 330 330 328 328 328 328 328 328 327 327 327 327 328 329
317 317 317 317 317 316 316 316 316 316 316 316 316 316 316 316 316 316 316 317 317 317 316 316 316 316 315 316 316 316 316 316 316 317 319 320 321 322 322 323 325 326 326 326 326 327 328 328 328 328 328 328 328 328 328 327 326 326 327 327 328 329 330 330 330 330 330 330 330 331 331 330 329 328 327 327 327 328 327 327 327 328 328 328 328
316 316 316 316 316 316 316 316 316 316 315 315 315 316 316 316 316 315 315 316 316 316 316 316 315 315 314 314 314 314 314 314 314 315 316 317 318 319 321 322 322 323 323 323 324 326 327 327 327 327 327 327 326 326 325 325 325 325 326 327 328 329 329 329 330 330 330 329 330 330 330 330 329 327 326 326 327 328 328 328 328 328 328 328 327
316 316 316 316 316 315 315 315 315 315 315 315 315 315 315 315 315 315 315 315 315 315 315 315 315 314 313 313 313 313 313 312 312 313 313 315 316 317 319 320 321 321 322 322 323 325 326 326 326 325 325 325 325 324 324 324 324 325 326 327 327 328 328 328 329 329 330 330 330 330 330 330 328 326 326 326 327 327 327 327 327 326 327 328 328
316 316 315 315 315 315 315 315 315 314 315 315 315 315 315 314 314 314 314 315 315 315 315 314 314 313 313 313 312 312 311 311 311 312 312 314 315 317 318 319 321 321 322 322 323 324 324 324 324 323 324 326 326 326 326 325 325 325 326 326 326 326 327 328 329 329 329 330 330 329 330 330 328 327 326 327 327 327 327 327 326 326 327 328 328
315 315 315 314 314 314 314 314 314 313 313 314 314 314 314 314 314 314 314 314 314 314 314 314 313 313 312 312 312 311 311 310 311 311 312 313 315 316 317 319 321 321 322 322 323 323 323 323 323 324 326 326 326 327 327 327 327 326 326 327 327 327 328 328 328 329 329 329 329 329 330 329 328 328 327 328 328 327 327 327 327 327 327 327 328
314 314 314 313 313 313 312 312 312 312 312 312 313 313 313 313 313 313 313 313 313 313 313 313 312 312 312 312 311 311 310 310 310 310 311 313 315 316 316 318 320 321 322 322 322 323 323 322 323 324 326 325 325 326 327 327 327 326 326 327 327 328 328 327 327 328 329 329 329 329 329 329 329 329 328 328 327 327 328 327 327 327 327 327 328
314 313 313 313 312 312 311 311 311 311 311 311 311 312 313 313 313 312 312 312 312 312 312 312 311 311 311 311 311 310 310 310 310 309 310 312 314 315 315 316 318 320 321 321 321 322 322 320 321 323 325 325 325 326 327 327 327 326 326 327 327 327 328 328 328 329 329 329 329 329 329 328 329 329 328 327 327 327 328 327 326 327 328 328 328
313 312 312 312 312 312 311 310 310 310 310 310 310 311 312 312 312 312 312 312 311 311 311 311 311 311 311 310 310 310 310 309 309 308 309 311 313 313 313 314 315 317 319 320 320 321 321 319 320 322 324 325 325 326 327 327 327 327 327 327 327 327 327 328 328 328 328 328 328 328 328 328 328 328 328 327 327 327 327 327 327 328 328 327 328
312 311 311 311 311 311 311 310 310 310 310 309 309 309 310 311 311 311 311 311 310 310 309 309 309 309 309 309 309 309 309 308 308 307 308 309 311 312 311 311 312 314 315 317 318 320 320 320 320 321 323 323 324 324 325 325 325 326 326 327 327 327 327 327 327 328 328 328 328 328 327 327 328 328 328 328 328 327 327 327 328 328 327 327 327
311 311 310 310 310 310 310 310 309 309 309 309 308 309 309 310 310 310 310 310 309 308 307 307 308 307 307 308 308 308 307 307 307 306 306 307 308 310 309 309 310 311 312 313 315 316 318 318 319 320 321 322 322 322 321 321 322 323 324 326 327 327 327 327 327 327 327 327 327 327 327 327 326 327 327 328 329 328 328 327 327 328 327 326 325
311 310 310 310 310 310 310 309 309 308 308 308 307 308 309 309 309 309 309 308 307 307 307 307 307 306 306 306 306 306 306 306 306 306 305 305 306 307 307 307 308 308 309 310 311 312 313 315 316 318 319 320 320 320 320 319 319 320 322 324 326 327 327 327 327 326 326 326 325 326 327 327 327 326 327 327 329 329 328 326 327 329 328 327 326
311 310 310 309 309 309 309 309 309 308 308 307 307 307 308 308 308 308 307 307 306 306 307 307 306 306 306 306 305 305 304 304 305 305 305 304 305 305 305 306 306 307 307 307 307 308 309 311 313 314 315 316 318 320 320 319 319 319 320 323 325 326 327 327 327 326 325 325 325 325 326 327 327 327 327 328 328 330 329 327 327 328 328 327 328
310 310 309 309 309 309 309 309 308 308 308 308 307 307 307 307 307 307 306 306 306 306 306 306 306 306 306 305 305 304 304 304 304 304 303 303 304 304 304 304 305 305 306 306 306 307 307 308 310 311 312 313 315 316 316 316 318 318 319 321 324 325 326 327 327 326 326 325 324 325 325 325 326 327 327 328 328 328 329 328 326 327 328 328 328
309 309 308 308 308 308 308 308 308 308 308 307 307 307 307 307 307 306 306 306 306 306 306 306 305 305 305 305 305 304 304 304 303 303 303 303 303 303 303 303 303 303 304 305 305 306 307 307 307 308 309 310 312 312 312 313 315 317 319 320 322 324 326 326 327 326 326 325 324 323 324 324 324 325 325 327 327 327 328 327 326 327 328 328 328
308 308 307 307 307 307 307 308 307 307 307 307 307 306 306 306 306 305 305 305 305 305 305 305 305 304 305 305 304 304 303 303 303 303 303 303 303 303 302 302 302 302 302 303 303 304 304 305 306 306 307 307 308 308 309 311 313 316 318 319 321 323 324 325 325 325 325 325 325 324 324 323 323 323 324 325 326 327 326 326 326 326 327 328 328
307 307 306 306 306 306 307 307 307 307 307 306 306 306 306 305 305 305 305 304 304 304 304 304 303 304 304 304 303 303 303 303 303 303 302 302 302 303 302 302 302 301 301 301 301 301 301 302 304 304 305 305 306 306 307 309 312 314 316 318 319 321 322 323 324 324 324 325 325 323 323 323 322 323 323 324 325 326 326 325 326 326 325 327 328
307 306 306 306 306 306 306 306 306 306 306 306 306 305 305 305 304 304 304 304 304 303 303 303 302 303 303 303 302 302 302 302 302 302 302 302 302 303 303 302 301 301 300 300 300 300 299 300 301 302 303 304 304 305 306 307 309 311 313 315 317 318 320 321 322 323 324 324 324 323 321 321 321 322 322 323 323 324 324 325 325 325 325 326 327
306 305 305 306 306 306 306 306 306 306 306 305 305 305 305 304 304 304 303 303 303 303 303 302 302 302 302 302 302 302 301 301 301 301 300 300 301 302 302 302 301 300 300 299 299 299 299 299 299 300 301 302 303 304 305 306 307 309 310 313 314 316 318 320 320 321 322 323 324 324 322 320 320 321 322 322 322 322 323 325 326 325 324 325 327
305 305 305 305 305 305 305 306 306 306 305 305 305 305 304 304 303 303 303 303 303 303 302 302 302 301 301 301 301 301 301 300 300 299 298 298 299 301 301 301 301 300 299 298 298 298 298 299 299 299 299 300 301 302 303 304 306 307 308 310 312 314 316 318 319 319 320 322 324 324 323 321 320 321 321 322 323 322 323 325 326 326 325 325 326
305 304 305 305 305 305 305 305 305 305 305 304 304 304 303 303 303 303 302 302 302 302 302 302 301 301 301 301 300 300 300 300 299 299 298 296 296 298 299 300 300 299 298 298 298 298 298 298 298 298 299 299 299 300 301 302 304 305 307 308 310 311 313 315 317 318 319 320 322 323 324 322 321 321 321 322 323 323 324 325 325 325 326 326 326
304 304 304 304 304 304 304 304 304 305 304 304 303 303 303 302 302 302 302 302 302 302 302 302 301 301 301 300 300 300 299 299 299 299 298 297 296 296 297 298 299 299 298 298 299 299 298 298 298 298 298 299 299 299 300 301 302 303 304 306 307 308 310 312 314 315 316 318 319 321 322 323 322 322 322 322 324 325 325 324 324 324 325 326 325
304 304 304 304 304 304 304 304 304 303 303 303 303 303 302 302 302 302 302 301 301 301 301 301 301 301 300 300 299 299 299 299 299 298 298 298 297 296 296 297 298 297 296 297 298 299 298 299 298 297 297 298 298 299 299 300 300 301 302 303 304 306 307 308 310 311 313 314 315 316 319 321 322 322 322 323 324 325 325 324 324 324 325 325 325
304 304 304 304 303 303 303 304 304 303 303 303 302 302 302 302 301 301 301 301 301 301 301 301 301 300 300 300 300 299 299 299 299 299 298 298 298 297 296 296 296 296 295 296 298 299 298 298 297 296 297 298 298 298 298 299 299 300 301 301 302 303 304 305 307 308 310 311 312 313 315 318 319 321 322 322 324 325 325 324 324 324 324 324 325
303 303 303 303 303 303 303 303 303 303 303 302 302 301 301 301 301 301 301 301 301 301 301 301 300 300 300 300 299 299 298 299 299 299 298 298 297 297 297 296 296 296 295 295 297 298 297 296 295 295 296 298 298 298 298 298 298 299 299 299 300 301 302 303 304 305 307 308 309 310 312 315 316 318 320 321 323 324 324 323 324 324 324 323 324
303 303 303 303 303 303 303 303 302 302 302 302 301 301 301 301 301 301 301 300 300 300 301 300 300 300 299 300 300 299 298 299 299 299 298 298 297 297 297 296 296 296 296 295 295 295 295 295 294 293 294 296 298 298 298 298 298 298 298 298 299 300 300 300 301 303 304 305 305 307 308 311 312 314 317 319 321 323 323 323 323 323 324 324 324
303 303 302 303 303 303 303 303 302 301 301 301 301 301 301 301 301 301 301 300 300 300 300 300 300 300 299 300 300 299 299 299 298 298 298 297 297 297 297 297 296 296 296 295 295 295 295 295 294 293 293 294 296 298 298 298 298 297 297 298 298 299 299 299 300 300 301 302 302 303 304 306 307 309 312 315 318 321 322 323 323 323 323 324 323
303 303 303 303 303 302 303 303 302 301 301 301 301 301 300 300 300 300 300 300 300 300 300 300 300 299 299 300 300 299 299 299 298 298 298 297 297 297 297 297 296 296 296 295 295 295 295 295 295 294 293 293 294 296 298 298 298 297 297 297 297 298 298 298 299 299 299 299 300 301 302 303 304 306 308 311 313 317 320 322 323 322 323 322 321
302 302 302 302 302 302 301 302 301 301 301 301 301 301 300 300 300 300 300 300 300 299 299 300 299 299 299 299 299 300 299 299 298 298 298 297 297 297 297 297 296 296 296 296 295 295 295 295 295 294 293 292 293 295 297 298 298 298 297 297 296 297 298 298 299 299 299 299 299 300 301 302 303 304 306 307 310 313 316 320 321 321 322 321 319
302 302 302 301 301 300 300 300 301 301 301 301 301 301 300 300 300 300 300 300 300 299 299 299 299 299 299 299 299 300 300 299 298 298 298 298 297 297 297 297 296 296 296 295 295 295 295 295 295 294 293 293 293 293 295 297 298 298 298 297 296 296 297 297 298 298 299 299 299 299 300 301 302 303 304 306 308 310 312 315 317 319 320 319 317
302 301 301 300 300 300 299 300 300 300 301 301 301 301 301 301 301 300 300 300 300 299 299 299 299 299 299 299 299 299 300 299 298 298 298 298 297 297 297 297 296 296 296 296 295 296 295 295 295 294 293 293 293 293 294 296 297 298 298 298 297 296 296 296 297 297 298 299 299 299 299 300 301 302 303 304 306 307 308 310 311 313 314 314 313
301 300 300 300 300 299 299 299 299 300 301 301 301 301 301 300 300 300 300 300 300 300 299 299 299 299 299 299 299 299 299 299 298 298 298 298 297 297 297 297 296 296 296 296 295 296 295 295 295 294 292 292 293 293 294 295 296 297 298 298 297 297 296 296 296 296 297 298 298 299 300 300 300 301 301 303 304 305 306 307 307 308 309 310 310
300 300 300 300 300 300 299 299 299 299 300 301 301 301 301 301 300 300 300 300 300 300 300 299 299 299 300 300 299 299 299 299 298 298 298 298 297 297 297 297 297 296 296 296 296 296 296 295 295 294 293 292 293 293 294 295 296 297 298 298 298 297 296 296 296 296 296 297 297 298 299 299 300 300 301 301 302 302 303 304 304 304 305 306 306
300 300 300 300 300 300 300 300 300 299 300 301 301 301 301 300 300 300 300 300 299 299 299 299 299 299 300 300 299 299 299 299 298 298 298 298 297 297 297 297 296 296 296 296 296 296 295 295 295 294 293 293 292 293 294 295 295 297 298 298 297 297 296 296 295 295 296 296 297 297 297 298 298 299 299 300 300 301 301 301 302 302 302 303 303
300 300 300 299 300 300 300 301 300 300 300 301 301 301 300 300 300 300 300 300 300 299 299 299 299 300 300 299 299 299 299 299 298 298 298 298 297 297 297 297 296 296 296 296 296 296 295 295 295 294 293 292 292 293 293 294 295 296 297 297 297 297 296 296 295 295 295 296 296 296 296 296 296 297 297 298 298 299 299 300 300 300 301 301 302
300 299 299 299 300 301 301 301 300 300 300 301 301 301 301 300 300 300 300 300 300 300 300 299 298 299 300 300 299 299 299 299 298 298 298 298 297 297 297 297 296 296 296 296 296 296 295 295 295 295 293 293 292 292 293 293 295 296 297 297 297 297 296 296 296 295 295 295 295 296 296 296 296 296 296 296 296 297 297 297 298 298 299 299 300
Wind_Speed
20 18 16 15 16 16 16 17 17 16 15 14 12 11 11 10 8 7 5 5 5 5 6 6 6 6 6 7 6 6 6 8 9 10 10 11 12 13 13 13 13 13 13 14 15 16 15 14 15 17 18 19 19 19 19 20 21 22 22 23 24 25 25 24 24 24 26 26 27 27 28 28 28 27 25 24 23 22 23 23 19 18 19 16 14
19 17 16 16 15 15 15 17 17 16 15 13 13 11 11 10 9 8 5 5 5 5 5 6 6 6 7 8 7 7 8 9 9 9 10 10 11 12 12 12 13 14 15 15 16 17 17 16 16 17 18 20 20 19 18 19 21 21 22 24 24 26 27 26 26 27 28 28 27 28 28 29 29 27 25 25 25 23 23 24 19 18 19 17 15
18 17 17 17 16 15 14 15 15 14 14 13 12 10 10 10 9 9 7 5 5 4 5 5 5 6 7 7 7 8 8 9 9 9 11 12 11 11 10 11 13 14 15 15 17 18 18 18 18 18 18 19 20 20 19 20 21 21 23 24 24 26 27 28 29 29 31 30 27 28 28 28 29 28 27 27 26 25 23 21 20 20 20 18 17
17 17 17 16 16 15 13 13 13 13 13 13 13 12 12 10 9 8 7 7 6 4 4 4 4 5 5 5 5 7 7 8 8 9 10 11 10 10 10 10 12 13 13 14 16 16 18 19 20 21 20 20 20 20 20 20 21 22 23 24 24 25 27 29 30 30 32 31 28 27 26 24 25 28 29 28 27 26 24 22 22 22 22 20 20
15 15 15 14 14 13 10 10 11 11 11 11 11 11 11 10 8 8 7 7 6 5 5 5 6 5 5 5 6 7 7 7 7 7 8 9 9 9 9 9 11 11 12 13 14 14 16 18 19 20 19 19 19 19 20 20 21 22 23 24 24 25 27 28 30 31 33 33 32 29 23 21 24 26 26 26 27 27 26 25 24 23 24 24 23
13 13 13 13 11 10 10 10 9 9 9 9 9 8 6 4 3 5 7 9 8 6 6 6 6 6 5 6 6 7 7 7 7 7 8 10 11 11 11 12 12 12 10 11 12 14 15 17 18 18 18 20 19 19 20 21 21 22 22 24 25 26 27 29 31 32 33 34 36 34 28 24 24 23 22 20 23 28 28 27 25 24 24 25 25
12 12 12 13 11 10 9 9 9 8 8 8 7 5 2 3 6 7 7 9 10 10 9 9 8 6 5 5 5 6 7 7 8 9 11 12 13 13 14 14 14 14 12 11 12 14 16 17 18 18 20 21 20 20 22 22 22 22 22 24 25 26 27 29 31 31 32 34 35 35 36 33 26 21 21 19 19 24 27 26 26 25 25 26 27
12 12 12 12 11 9 8 7 7 6 5 5 4 3 4 5 5 6 7 9 10 12 12 12 11 9 8 6 5 5 6 7 8 9 11 12 12 13 14 14 13 13 13 13 13 16 17 18 19 19 20 21 20 21 22 22 22 23 24 24 26 28 28 29 29 29 31 34 34 34 36 37 31 22 21 22 19 20 23 24 24 23 24 26 27
12 12 12 11 10 8 7 5 4 3 2 2 3 3 4 3 3 4 5 5 5 7 9 11 11 11 10 9 7 6 6 7 8 9 10 11 11 11 12 13 13 13 13 14 15 17 18 19 20 19 19 20 21 22 23 22 23 25 25 25 27 28 28 28 28 28 30 32 34 35 34 35 35 28 23 22 20 18 19 21 21 20 22 24 26
12 13 13 12 10 8 6 4 4 4 3 3 5 3 1 2 2 2 2 1 1 1 4 8 10 11 11 11 10 10 10 9 9 10 11 11 11 10 9 10 11 12 12 13 14 16 17 18 20 20 20 21 22 23 23 24 26 27 27 27 27 26 26 27 28 28 28 29 31 34 34 33 33 31 27 24 22 20 19 18 18 19 21 23 26
12 13 13 13 12 9 7 6 5 5 4 5 4 1 2 2 4 6 7 5 2 0 0 2 6 9 11 11 12 13 13 13 12 11 12 12 12 10 9 9 10 11 12 13 13 14 15 16 18 21 21 21 22 24 25 26 28 27 27 28 27 25 24 24 25 27 27 27 29 32 33 31 30 30 30 29 27 25 24 22 20 19 19 20 23
11 12 12 12 10 8 7 6 5 5 6 6 5 4 6 8 10 11 12 10 5 2 1 1 2 4 7 11 12 13 15 15 13 12 12 13 13 13 12 11 11 11 12 13 14 14 15 16 17 19 22 23 25 26 27 28 29 28 27 28 28 26 25 23 23 26 27 27 28 31 31 30 29 28 29 31 30 30 29 25 22 19 18 18 20
11 11 11 9 8 7 6 6 6 7 8 8 8 9 11 14 13 13 13 12 12 10 8 4 2 2 2 4 7 9 11 12 13 13 13 14 14 14 14 13 13 12 12 12 14 16 16 17 18 19 21 22 23 25 26 28 30 30 28 29 29 29 27 25 24 25 27 27 27 29 30 29 28 27 28 29 30 32 31 27 23 22 20 19 19
12 12 11 10 9 8 6 6 7 9 10 10 11 12 14 15 14 14 14 13 16 18 18 14 8 3 1 1 2 3 4 5 8 11 13 13 13 14 14 13 12 12 11 12 13 16 17 18 19 21 21 22 22 23 24 26 29 30 30 30 30 30 29 27 26 26 27 26 25 28 29 29 28 27 28 29 29 30 31 28 25 24 22 21 20
13 11 11 10 9 8 7 8 9 10 10 11 12 13 15 15 12 13 15 17 18 20 21 21 16 10 7 5 3 2 2 3 6 8 10 11 12 13 13 12 11 11 12 12 13 15 16 17 19 20 21 22 23 23 24 26 28 30 31 32 31 30 30 29 27 26 26 26 26 26 27 28 28 26 28 29 29 29 30 28 26 26 25 22 21
13 11 11 10 8 7 7 8 8 9 10 10 12 14 15 14 11 11 15 18 18 18 21 22 19 17 15 12 8 5 4 5 7 8 7 6 9 12 13 12 12 13 14 14 15 15 16 17 18 20 21 22 24 25 25 26 28 30 31 33 32 30 29 29 28 26 25 25 25 25 26 27 26 25 26 28 29 29 30 29 28 29 28 25 22
12 12 12 10 9 8 8 8 8 9 10 12 13 14 14 12 11 11 13 17 18 17 19 21 20 19 18 16 13 10 8 9 9 10 9 6 7 9 10 11 11 12 15 16 17 17 17 17 19 21 23 24 25 26 27 28 29 30 30 31 31 29 27 28 29 26 23 23 22 23 26 25 23 23 25 26 27 27 29 30 29 29 29 28 25
13 12 11 10 10 10 9 9 9 10 11 13 13 12 12 11 12 13 15 17 18 17 17 18 19 21 21 19 18 17 16 14 13 11 10 9 8 8 9 9 10 11 13 14 15 15 15 16 19 22 23 25 27 28 29 29 29 29 28 28 27 26 26 28 28 26 23 22 22 22 25 24 23 24 25 26 26 26 27 29 29 28 28 29 28
14 12 11 11 10 10 10 9 9 10 11 12 12 12 12 11 12 14 16 17 16 15 16 17 18 20 22 21 21 21 21 19 16 14 12 11 11 11 11 11 11 11 11 11 11 12 13 15 18 21 24 26 28 28 27 26 26 26 24 24 24 24 25 27 28 25 22 23 22 21 24 25 24 25 26 27 28 28 29 29 29 28 28 28 28
13 12 12 12 10 9 10 10 9 9 9 9 10 12 13 13 14 15 16 15 15 14 14 15 17 19 21 22 22 22 22 21 19 18 16 14 14 14 14 13 13 13 12 12 12 12 15 18 20 22 24 23 23 22 22 21 22 22 21 21 22 23 24 25 26 24 23 23 22 21 24 26 26 27 28 29 29 30 30 30 29 29 28 27 28
12 13 13 12 11 9 10 10 11 10 9 9 9 11 14 15 15 15 15 15 15 14 14 16 17 18 20 21 22 23 23 23 21 21 19 17 15 16 16 15 15 14 14 14 14 15 17 18 20 22 21 19 19 19 18 18 18 19 19 20 21 21 22 21 22 23 23 22 22 21 24 26 26 27 27 29 30 30 30 29 29 28 28 28 29
12 13 13 13 13 12 12 12 13 13 13 13 11 12 15 16 15 14 15 16 15 14 14 16 17 17 19 20 22 23 24 24 23 23 22 19 18 18 18 17 16 15 15 15 16 17 18 17 18 19 18 17 17 17 16 16 17 18 18 18 19 21 19 16 18 20 19 20 21 21 23 25 26 26 26 28 29 29 29 28 27 28 29 29 29
14 14 14 14 13 12 13 14 14 15 15 16 15 15 16 17 16 15 16 17 16 16 15 15 15 16 17 19 20 22 23 24 24 24 23 20 18 19 19 19 18 17 16 15 15 16 18 18 17 17 17 16 17 17 17 17 16 17 17 17 17 18 14 11 13 15 16 17 19 20 21 22 24 26 26 27 28 28 28 28 27 28 29 28 30
15 14 13 13 13 13 14 14 15 15 15 15 16 17 16 17 17 17 18 17 16 16 15 15 14 15 15 16 17 18 20 23 24 24 23 20 18 19 20 21 20 19 17 16 15 15 17 18 18 18 17 17 16 16 16 16 16 16 17 16 16 15 13 11 10 11 14 15 15 16 18 20 23 26 27 27 28 29 29 28 28 29 29 29 29
15 15 14 13 14 14 14 15 15 15 15 15 16 17 17 18 18 18 18 17 16 16 17 16 16 17 17 17 18 19 19 21 22 24 24 22 20 19 20 23 23 22 20 19 17 16 15 17 17 18 19 18 16 15 14 15 15 15 15 15 14 13 11 10 10 11 13 13 12 13 15 18 21 24 27 27 26 27 28 28 28 29 29 29 28
15 15 15 15 15 15 15 15 14 15 15 16 17 17 18 19 20 19 17 16 16 18 20 21 22 24 23 22 23 22 21 22 23 24 25 24 22 20 22 24 25 24 23 22 20 19 18 17 16 16 18 19 18 15 14 15 15 14 14 14 13 11 10 9 9 11 12 12 11 11 13 16 18 21 24 25 24 25 26 27 29 30 29 28 29
16 16 16 16 16 15 14 14 14 15 16 17 17 17 19 20 20 18 17 18 19 22 25 26 26 27 27 26 26 26 24 23 24 25 26 26 24 23 24 25 25 25 25 25 23 22 21 20 19 17 17 19 19 18 17 17 15 15 14 13 13 12 12 11 9 11 11 10 10 11 13 15 17 19 20 20 21 22 23 25 27 29 29 29 30
17 16 15 15 15 15 14 14 15 16 16 17 19 20 21 21 19 18 19 21 23 25 26 25 25 28 29 29 30 31 29 27 26 25 26 26 24 24 25 25 25 25 26 26 25 24 23 22 21 20 19 20 20 21 21 20 18 16 15 14 14 13 13 11 9 9 10 9 9 10 12 14 16 17 18 17 18 20 22 24 26 27 27 28 29
17 16 15 14 14 15 17 17 15 15 15 16 19 21 22 21 19 19 21 22 23 24 23 22 23 26 27 29 31 33 33 32 31 31 30 29 27 26 25 25 25 25 25 26 25 24 24 24 23 22 22 21 21 22 23 23 21 20 18 17 15 13 12 12 10 9 8 8 9 10 11 13 15 16 17 17 16 18 21 23 26 28 29 27 27
17 16 15 14 13 14 17 17 16 16 16 17 18 19 19 20 19 20 20 20 20 20 20 20 21 22 24 26 29 31 32 33 34 35 35 35 33 31 30 28 26 25 25 26 26 25 24 25 26 25 24 24 24 24 25 24 23 22 22 20 17 14 13 12 11 11 10 9 9 10 10 12 15 15 16 16 15 17 21 23 26 29 30 28 27
17 16 15 14 13 14 16 16 15 16 17 18 18 17 17 19 20 20 19 17 17 18 18 19 19 20 22 25 27 29 30 31 33 34 34 35 35 35 35 34 33 30 27 26 28 28 27 27 27 27 27 27 27 27 26 24 23 23 22 22 20 17 14 13 12 12 13 11 9 10 12 12 14 16 16 16 16 17 20 22 24 27 27 27 28
19 17 16 15 15 14 15 16 16 15 16 17 16 15 16 18 19 18 17 17 17 18 19 21 21 21 23 25 26 27 27 28 30 31 32 32 33 35 36 36 37 36 32 28 29 31 32 31 30 29 28 28 28 28 28 26 24 23 22 21 20 18 16 14 13 14 15 13 10 12 13 14 14 15 16 15 14 15 16 19 21 23 25 27 28
18 16 16 16 16 15 15 16 16 16 16 15 15 16 16 16 16 16 16 18 19 20 22 24 24 23 24 25 26 26 26 26 26 27 28 28 30 32 33 35 37 38 37 34 32 32 34 36 35 33 31 30 29 29 29 28 26 24 22 21 19 18 16 14 13 12 12 12 12 13 14 14 14 14 15 14 13 12 14 17 18 20 23 26 27
17 16 16 16 16 16 15 15 16 16 15 15 15 16 16 15 15 15 16 18 19 20 22 24 25 24 24 25 26 27 27 26 25 25 25 26 27 28 30 32 34 36 38 37 35 34 36 38 38 37 36 34 32 31 30 29 27 26 24 21 18 16 14 13 12 10 9 9 11 13 14 14 14 13 13 13 12 11 12 15 18 20 22 23 24
19 18 17 17 17 16 15 16 16 16 15 15 15 15 15 16 16 17 18 19 19 19 21 24 25 25 24 25 26 26 26 27 27 26 28 28 26 26 28 30 31 34 37 36 34 35 37 38 38 39 39 38 37 35 32 31 29 28 26 23 19 15 11 10 10 9 8 8 10 11 13 14 14 13 12 12 11 12 12 13 16 19 20 20 22
18 18 18 17 17 16 16 15 16 16 15 15 15 15 16 17 17 18 20 20 19 18 20 23 25 25 24 23 23 24 26 28 28 28 31 33 31 28 27 27 29 31 34 34 33 34 36 38 39 40 40 40 39 39 37 34 32 30 28 25 23 19 13 10 9 8 8 9 10 12 13 14 13 13 13 13 13 12 14 14 14 17 19 20 22
19 18 18 18 17 16 16 15 15 15 15 16 16 16 17 17 17 18 19 19 19 19 20 22 23 24 23 22 22 24 26 27 28 29 30 33 35 32 28 26 27 29 31 31 32 33 35 36 37 39 40 40 39 39 39 38 36 33 31 29 27 24 19 14 10 8 7 8 9 11 13 14 14 13 14 14 14 14 16 16 16 18 19 20 21
19 18 18 18 17 16 16 15 15 15 15 16 15 14 16 17 18 18 18 18 19 19 18 19 21 22 22 22 23 24 26 27 28 30 30 32 35 35 32 28 27 28 29 28 29 32 34 33 34 37 38 39 39 39 39 39 39 37 34 32 30 28 25 22 17 12 10 9 9 9 10 13 14 14 14 14 14 16 18 19 19 19 20 20 20
18 18 17 17 16 15 15 15 15 15 16 16 15 15 17 18 18 18 18 18 19 18 16 17 20 21 22 23 23 24 25 26 27 29 30 31 33 35 35 33 31 30 30 27 26 28 32 32 33 35 35 36 37 38 39 39 39 38 36 34 33 31 30 28 25 20 16 13 11 10 9 10 11 13 14 14 15 15 17 18 18 20 21 21 21
18 19 17 17 15 14 14 14 14 15 16 16 16 16 17 17 16 16 17 17 18 17 15 16 20 22 21 22 24 25 26 26 25 27 29 30 32 35 36 35 35 35 34 30 26 26 30 32 34 34 32 33 35 36 37 38 38 37 37 36 35 34 34 33 30 26 23 20 17 14 11 10 11 11 11 12 13 14 14 15 17 20 22 22 21
19 18 17 16 15 14 14 13 13 15 17 16 16 16 16 16 16 17 16 16 16 15 14 16 20 22 21 21 23 26 26 25 23 24 27 30 31 34 36 36 36 37 37 36 32 30 32 35 37 35 32 31 32 34 34 35 36 36 35 35 35 35 35 34 32 30 29 28 26 23 18 15 14 13 12 10 11 13 15 15 17 20 22 22 21
18 17 16 16 16 15 14 13 13 15 17 16 15 15 15 15 16 16 15 15 16 17 16 17 19 21 21 20 21 24 25 24 24 25 28 30 31 33 35 36 37 37 37 38 37 35 36 38 39 39 36 31 29 30 32 32 33 35 34 33 32 31 31 32 33 33 33 32 32 30 27 23 21 18 15 11 10 12 15 16 16 18 21 22 19
18 18 16 16 16 15 15 13 12 14 17 16 14 13 15 16 16 15 14 13 14 16 17 17 18 20 21 19 18 20 23 24 26 27 28 29 30 32 34 35 37 37 37 38 39 38 38 40 41 42 41 36 29 26 28 29 30 33 33 32 31 29 28 28 29 30 31 32 32 31 29 26 24 21 19 15 12 11 13 16 16 18 21 21 17
19 18 16 15 15 15 15 13 12 13 15 16 14 13 14 15 14 13 13 12 12 13 15 16 16 18 19 19 18 16 18 23 27 27 28 29 30 32 34 35 36 37 37 37 39 39 40 42 44 45 45 42 32 24 24 26 27 29 32 32 32 31 28 26 25 25 26 27 28 29 28 26 24 21 19 16 13 11 12 14 17 19 22 19 14
21 19 17 16 16 15 14 14 13 11 12 14 15 14 14 14 13 13 12 12 13 13 14 14 14 15 16 18 17 14 14 20 25 25 26 28 30 31 33 34 35 36 36 37 38 40 40 41 44 46 47 45 36 25 22 24 25 26 29 29 30 31 31 30 28 26 24 23 21 23 25 25 24 22 19 15 11 7 6 9 15 20 23 20 16
20 18 17 17 16 15 14 14 13 11 11 13 15 14 12 11 12 12 12 12 12 13 13 12 12 14 15 15 16 15 14 18 23 23 23 26 29 30 32 33 34 34 36 36 37 39 40 41 44 45 46 46 39 28 23 24 25 26 27 26 27 30 31 32 31 29 27 24 21 19 20 22 23 22 20 16 13 9 6 1 10 18 21 22 22
18 17 17 16 15 14 14 13 13 13 12 12 13 12 9 8 9 9 10 12 12 12 14 14 11 12 14 14 14 16 16 17 19 21 22 24 27 29 30 32 32 33 35 35 36 38 39 40 43 45 46 46 41 31 26 26 27 27 26 24 25 28 30 31 32 30 28 25 22 19 16 16 16 17 17 16 14 12 9 7 6 12 17 20 22
18 18 17 15 15 14 13 12 12 12 12 13 13 11 8 9 10 8 8 10 10 11 13 14 13 13 14 14 14 15 16 17 17 19 21 23 26 28 28 29 31 32 33 34 34 35 37 38 41 44 46 46 40 32 28 27 28 27 25 22 22 26 28 30 30 30 27 25 23 20 18 16 15 14 14 14 14 14 13 12 11 11 13 15 17
19 18 17 15 15 14 13 13 12 11 12 14 14 12 10 10 11 10 9 9 9 10 10 10 10 11 12 13 14 14 15 16 17 18 20 21 23 26 26 27 28 29 31 32 32 33 35 36 38 41 45 45 38 30 26 25 25 24 23 20 20 23 26 28 28 27 26 26 26 25 24 24 22 20 19 17 16 14 13 12 12 12 12 13 14
20 19 17 16 15 14 14 13 11 10 13 15 15 12 9 8 8 9 10 9 7 11 13 10 8 9 10 11 13 13 13 14 17 18 19 19 21 23 23 24 25 27 28 30 30 31 34 35 35 39 42 41 34 25 21 21 22 22 21 19 18 20 23 26 27 26 25 26 28 27 27 27 26 25 24 23 20 17 14 12 11 10 10 10 10
18 17 16 15 15 14 14 12 10 10 13 15 14 12 9 8 8 7 9 9 7 8 11 11 9 9 9 11 14 13 11 12 15 16 17 18 20 20 20 21 23 24 27 28 27 29 32 33 34 38 40 37 33 27 20 18 21 21 19 17 17 19 22 25 27 28 27 27 28 28 27 27 26 25 25 24 22 20 17 15 13 11 10 9 8
Wind_Direction
117 124 127 128 129 131 129 127 128 130 129 131 137 138 131 124 115 109 112 133 160 179 175 179 190 201 208 215 216 204 219 232 223 224 234 242 250 257 268 277 277 276 276 276 276 276 275 270 263 261 262 263 265 264 262 261 260 260 261 260 259 257 255 254 253 251 244 238 238 238 237 239 238 236 234 233 236 235 237 242 230 223 235 236 240
121 123 125 129 130 132 130 130 131 129 130 131 130 129 128 130 129 120 112 124 144 162 169 184 203 213 221 226 231 229 231 236 234 232 231 232 238 242 253 267 273 279 282 280 276 274 274 272 267 262 260 263 267 267 264 264 264 263 262 259 259 258 256 255 255 252 247 242 240 241 240 243 243 239 237 237 236 233 235 237 226 224 234 238 241
123 123 122 126 130 134 132 133 135 134 136 137 134 134 131 130 132 129 129 139 144 154 163 179 202 214 226 231 239 245 249 251 249 248 245 240 236 234 245 260 267 274 280 280 279 280 279 276 274 270 265 264 266 268 268 269 270 269 266 263 261 259 257 255 254 252 251 247 241 241 241 241 243 241 236 235 234 230 230 233 230 232 236 238 240
119 122 121 123 127 131 129 133 139 140 140 140 141 144 143 143 149 148 148 158 162 177 186 185 198 211 227 239 251 257 260 261 259 264 265 261 255 248 245 243 250 262 270 274 279 287 290 287 284 279 275 273 271 273 276 277 278 275 270 268 265 261 258 256 253 251 251 248 239 236 239 240 240 239 236 234 232 228 227 228 230 233 235 237 239
117 119 121 122 125 128 134 139 138 138 139 138 136 137 138 142 154 164 176 186 184 193 207 211 211 213 225 240 249 256 265 274 275 273 274 279 279 280 273 255 250 255 257 263 270 276 284 290 291 286 282 277 275 278 282 283 282 278 275 272 268 263 260 259 256 251 250 250 243 235 232 234 237 239 239 237 233 227 225 226 229 232 234 236 237
117 119 120 124 129 134 145 148 141 138 137 135 130 125 125 137 184 202 205 214 214 214 219 220 222 222 232 250 259 262 264 271 280 280 281 284 279 282 285 280 279 279 271 269 271 271 274 282 288 290 287 282 282 285 284 282 279 277 277 272 267 263 261 258 257 254 252 251 248 242 237 237 241 240 234 232 230 228 227 228 230 234 235 235 235
113 116 116 120 127 132 136 137 140 142 133 129 129 128 157 227 240 234 227 227 223 224 227 224 229 231 234 259 275 277 279 283 284 282 283 284 281 284 288 286 289 296 298 292 284 279 277 278 280 283 285 285 289 290 284 279 277 277 276 273 271 266 260 256 256 256 255 253 250 246 243 243 242 234 224 221 221 224 227 228 231 234 233 233 232
104 110 112 116 120 119 118 121 131 139 136 144 155 178 218 226 232 239 240 239 231 228 228 226 231 233 233 250 268 276 284 289 287 284 288 291 290 292 294 292 291 293 298 296 289 286 285 284 281 280 281 283 286 285 281 279 277 277 276 275 274 267 261 258 257 256 256 257 254 247 243 244 240 231 222 218 215 219 224 225 226 229 231 231 230
100 100 100 108 111 98 97 106 106 107 132 191 245 252 238 224 234 258 259 260 254 236 226 222 225 228 233 245 259 269 274 281 288 290 293 299 304 302 296 294 294 294 294 293 292 292 291 291 290 289 286 286 286 282 282 282 279 277 276 275 275 271 267 265 262 259 257 258 257 250 245 243 240 235 226 219 218 223 221 219 221 222 226 228 228
97 93 89 93 88 70 64 62 47 31 5 319 301 291 248 185 183 302 328 32 36 270 227 217 214 220 231 242 252 261 267 273 286 294 292 296 305 312 311 305 303 302 298 295 294 293 292 293 293 293 291 289 287 284 283 282 280 281 281 280 278 276 273 267 262 261 258 256 257 255 249 244 241 237 230 223 227 229 221 223 230 229 228 228 226
92 89 86 86 82 69 55 38 19 359 339 323 320 359 62 87 86 33 20 38 68 65 291 222 207 213 222 233 247 257 265 272 283 296 297 297 300 308 317 316 311 310 309 309 308 303 299 297 294 293 294 294 293 292 292 290 286 285 286 284 280 277 275 271 264 262 261 259 257 256 254 249 246 243 237 231 232 231 225 230 240 239 236 235 230
97 89 84 86 86 77 61 36 1 345 343 342 352 25 47 53 58 44 29 23 11 347 313 295 195 210 225 228 237 250 260 269 281 294 297 296 297 301 306 307 307 311 316 319 317 311 305 301 298 296 296 296 295 295 296 296 294 289 285 283 280 276 274 274 270 265 264 264 259 256 254 250 247 248 246 240 239 236 230 233 240 239 234 233 231
96 86 80 80 75 64 54 38 22 12 6 10 22 39 50 47 45 37 26 19 20 23 13 8 74 98 256 237 242 252 260 267 271 278 286 290 293 298 301 303 305 309 314 317 316 313 309 304 302 301 300 299 297 296 297 296 294 291 286 282 280 276 274 271 268 265 264 264 261 256 252 248 245 245 246 244 242 238 233 235 241 239 233 230 227
94 89 85 78 65 52 37 37 41 29 24 33 39 48 54 47 36 25 19 25 34 30 19 13 23 41 338 298 284 275 288 291 275 270 275 282 287 291 294 299 303 306 306 308 312 313 310 306 305 306 307 307 305 302 301 299 297 294 291 285 279 275 273 270 266 265 263 261 258 254 249 246 244 242 245 245 242 239 236 236 238 235 232 233 231
100 98 91 79 63 48 40 50 53 42 41 42 43 54 58 52 42 26 26 39 40 28 19 15 15 16 8 359 1 15 3 324 298 287 282 280 280 280 281 285 291 294 292 294 302 307 308 306 305 307 308 309 308 306 305 304 302 299 295 289 281 274 270 268 265 263 262 259 256 252 248 245 241 239 244 247 243 239 237 238 237 230 224 226 230
101 97 90 83 75 61 56 62 59 52 50 46 51 58 52 44 34 20 34 50 45 30 21 18 16 15 14 14 20 29 16 342 328 328 324 299 282 279 278 277 280 282 283 289 299 305 307 307 304 305 307 306 306 306 306 305 303 300 298 294 287 279 271 266 263 261 260 258 255 251 246 244 241 238 241 245 244 239 235 234 234 230 225 221 220
102 100 99 95 88 75 64 68 67 59 52 51 60 58 46 42 31 22 44 58 51 36 24 18 17 15 14 16 19 24 22 8 356 353 354 346 321 306 297 292 287 282 283 289 297 301 308 310 306 302 305 307 307 308 307 305 303 300 297 296 292 286 277 267 260 258 260 257 251 248 246 244 240 236 236 240 241 238 232 229 229 230 231 227 219
108 108 109 104 94 83 76 75 70 63 57 56 61 55 45 42 34 35 54 58 49 39 26 19 18 16 15 17 22 25 22 18 15 9 3 359 353 344 331 322 312 303 300 300 299 302 310 312 306 303 308 311 310 307 305 304 303 300 296 295 294 290 284 273 263 257 256 255 250 246 246 245 239 235 236 239 238 234 229 226 226 227 230 232 230
113 112 110 105 100 93 90 86 77 75 70 65 68 63 49 39 37 48 58 56 49 41 30 24 24 21 19 23 28 27 23 21 20 17 14 10 4 358 350 343 335 331 331 327 318 317 319 315 312 316 319 319 316 312 308 305 303 300 298 296 294 291 285 278 271 262 253 249 248 246 245 243 238 237 239 239 237 234 231 228 228 229 231 233 234
115 114 109 106 104 98 94 91 84 81 80 80 80 71 57 48 49 55 55 53 50 42 30 29 31 28 25 29 31 26 21 20 19 22 25 22 14 6 1 358 353 348 347 344 336 328 324 321 323 330 332 334 337 334 327 321 312 308 306 302 300 297 290 282 274 266 255 248 245 245 246 242 238 238 240 241 237 233 233 232 231 232 234 233 231
114 110 108 105 102 96 92 89 81 72 67 74 83 78 65 56 55 56 54 52 47 37 31 37 40 35 33 35 31 24 21 20 21 25 29 29 22 12 6 3 358 354 353 352 348 340 334 331 334 339 340 343 351 350 344 337 326 320 319 315 309 304 297 286 272 261 254 249 246 244 244 242 239 238 240 242 241 238 236 234 233 234 235 232 228
114 110 108 105 98 89 83 82 79 72 61 59 72 82 73 60 53 55 57 53 42 33 38 47 46 41 41 40 34 28 23 21 22 26 28 31 28 18 11 7 4 3 360 355 351 348 345 343 345 346 343 345 349 347 342 339 330 322 320 317 311 306 300 288 269 257 251 248 244 241 242 243 240 238 240 242 243 243 242 238 234 234 234 231 227
117 113 109 105 101 93 86 80 78 78 69 60 65 77 77 65 54 52 58 56 41 34 44 52 49 47 49 46 40 35 29 22 22 24 26 30 30 23 18 13 11 10 7 1 357 353 348 347 350 350 345 344 347 345 341 339 336 330 325 321 316 308 297 281 264 256 257 254 247 243 245 247 244 240 240 243 244 243 243 242 237 234 233 229 224
115 111 107 106 106 100 92 84 78 79 76 69 67 71 75 71 60 54 57 55 43 36 41 45 47 49 50 47 42 39 34 27 21 20 23 31 34 30 25 22 19 16 13 10 6 358 351 349 350 349 344 341 342 343 341 337 335 334 331 329 326 315 298 284 274 268 269 267 259 254 253 253 250 245 245 246 246 245 241 239 237 233 230 227 221
108 106 103 103 104 99 92 86 82 80 77 75 72 69 70 68 61 56 56 53 43 35 34 37 42 44 43 42 38 35 35 31 24 22 25 30 35 34 31 29 27 23 20 16 11 6 359 354 351 346 341 338 337 340 340 336 334 333 331 326 324 321 306 292 288 284 280 275 269 262 258 257 254 252 250 246 247 248 244 240 237 232 229 226 220
109 107 103 100 100 97 92 88 84 81 77 74 73 72 71 68 62 56 51 47 42 36 38 43 42 39 39 39 35 32 34 33 30 29 28 29 33 35 32 31 31 29 26 22 16 11 7 2 355 347 338 333 333 336 338 337 334 333 332 324 316 314 313 308 302 295 288 281 276 271 265 262 259 258 255 250 249 250 246 242 237 231 228 225 222
114 110 104 102 100 95 93 90 80 76 76 72 69 71 73 71 66 56 44 43 45 44 46 46 40 36 38 39 34 30 33 35 35 35 31 28 31 33 30 27 28 29 28 27 23 18 14 9 4 357 345 334 330 327 328 331 332 333 333 327 315 307 306 312 312 302 294 285 276 272 271 271 268 266 265 260 256 250 244 245 241 231 227 226 224
116 110 105 103 102 94 93 93 79 69 70 68 64 65 70 69 63 54 45 46 50 49 48 46 40 36 36 35 32 29 30 33 36 37 33 29 31 34 31 27 25 25 25 25 25 23 21 16 11 6 358 347 336 328 326 326 326 328 331 328 321 311 303 303 303 301 301 295 282 275 276 279 277 275 275 270 261 250 244 246 243 235 230 229 225
113 109 105 103 102 93 89 92 86 74 70 69 64 62 64 63 58 52 50 52 53 52 52 49 45 42 38 34 32 30 30 31 32 33 31 30 31 33 32 29 25 23 21 19 19 19 19 18 16 12 6 358 350 346 345 339 329 325 326 326 324 316 305 300 295 294 299 298 291 286 282 280 280 279 277 273 264 252 247 248 247 240 233 229 224
115 110 106 103 103 98 93 93 90 80 76 73 66 63 66 69 64 55 53 57 57 55 54 50 49 51 47 39 34 32 31 31 30 29 30 30 29 29 28 28 27 25 22 18 14 12 13 15 16 15 11 7 3 0 357 350 339 330 324 323 323 320 312 306 304 303 300 297 295 294 291 285 283 281 276 271 262 252 250 252 252 246 237 229 224
118 112 107 101 98 97 97 95 88 81 80 78 72 70 73 73 67 57 55 58 57 53 50 45 47 54 56 50 42 37 35 34 31 30 30 29 28 26 25 24 23 22 21 19 15 12 10 10 12 13 12 11 10 6 360 353 345 335 328 324 323 322 317 313 310 304 298 297 304 307 306 301 295 290 282 270 258 251 250 252 253 250 243 236 229
116 112 107 101 94 91 92 91 86 81 79 76 72 72 72 71 68 64 58 53 49 48 44 42 47 55 59 56 49 43 40 38 36 33 31 31 29 25 22 20 18 17 18 20 19 15 12 10 9 11 10 10 10 8 2 356 349 341 334 329 326 324 321 318 313 306 301 304 310 311 308 307 304 300 291 278 261 250 250 253 251 246 243 241 236
118 114 109 103 97 91 89 89 86 83 79 75 72 72 71 71 71 68 61 53 48 46 42 41 48 55 59 56 50 44 40 38 38 36 32 33 34 28 22 18 16 15 15 18 21 20 17 14 12 12 11 10 11 10 6 2 357 350 343 336 330 328 328 326 321 313 308 306 302 298 298 301 305 304 299 292 275 253 249 251 244 234 235 240 239
119 115 110 105 101 94 91 92 90 86 85 82 79 78 75 73 69 66 65 62 55 48 42 41 44 50 55 54 49 45 39 34 33 31 30 34 39 36 28 19 15 14 14 15 20 23 22 18 16 15 13 11 12 12 11 8 5 1 355 348 340 333 332 332 326 316 312 306 295 291 292 293 294 295 296 295 283 267 257 248 234 225 230 237 236
118 113 107 103 103 97 94 95 94 91 90 88 86 84 81 76 69 63 64 65 60 52 45 42 42 48 54 52 48 44 39 33 30 30 32 34 38 41 36 25 17 14 13 15 20 23 23 20 18 16 15 13 11 10 11 11 10 8 5 2 356 349 342 335 329 320 310 298 289 286 287 287 285 284 285 283 278 276 270 254 237 230 231 231 229
121 115 108 102 99 97 96 99 101 99 94 88 86 84 80 76 71 66 63 63 62 57 50 45 44 47 50 48 46 44 39 35 33 32 34 33 34 38 38 32 23 15 13 17 22 23 23 21 19 17 16 14 11 9 9 11 11 11 10 11 10 7 2 348 337 330 315 298 287 281 279 279 280 281 279 273 266 267 268 259 248 241 235 229 228
120 115 111 107 103 100 98 97 101 103 98 91 85 80 78 74 71 69 66 63 64 62 55 48 43 43 43 45 47 46 41 37 35 33 31 30 30 33 36 35 28 17 14 19 22 20 19 19 18 15 15 15 14 11 9 8 9 10 11 14 16 16 15 9 358 343 328 312 299 288 279 275 275 276 276 272 262 257 260 256 250 246 242 235 230
119 112 109 107 106 106 103 97 94 95 96 92 86 84 84 75 69 70 67 63 63 61 52 44 39 38 40 43 46 45 42 39 36 33 30 27 27 29 33 35 31 22 18 23 24 18 16 17 17 14 14 15 16 14 12 10 9 9 10 13 15 17 18 17 13 3 347 331 320 307 288 277 274 271 269 268 260 253 252 251 247 246 246 241 232
122 116 113 111 108 107 108 105 98 94 92 89 83 83 84 76 69 69 67 63 61 55 47 43 40 39 40 40 40 41 42 41 36 32 30 27 24 27 30 32 32 27 25 30 30 21 16 16 15 12 13 16 16 15 14 12 10 9 10 12 14 16 18 18 16 13 5 351 337 325 302 284 279 272 267 267 264 257 252 250 246 244 244 244 238
123 118 116 116 112 108 106 104 103 101 96 90 83 79 78 77 74 69 66 66 63 57 54 49 41 39 39 38 39 41 44 44 38 31 29 28 25 26 27 28 29 28 28 31 32 24 18 17 14 12 13 16 17 14 14 13 12 11 12 11 12 14 16 16 16 17 15 9 360 348 330 307 293 282 272 266 264 260 252 245 243 245 247 248 246
125 124 122 120 116 110 105 100 99 101 96 89 83 79 76 76 75 68 65 66 65 64 62 51 40 37 38 39 39 40 42 45 41 32 30 30 27 26 26 26 26 26 25 26 28 26 22 20 19 16 15 17 17 15 13 12 12 13 13 13 12 12 12 13 15 16 17 17 13 8 359 344 327 312 295 274 258 254 246 238 239 245 249 251 250
132 131 128 125 120 114 107 99 94 99 97 89 84 82 79 76 72 66 63 64 67 70 65 49 39 38 40 40 37 35 37 41 39 33 30 29 26 24 25 25 23 24 24 24 24 23 21 20 19 19 17 15 16 17 14 10 11 14 16 16 14 10 7 9 12 14 16 16 14 12 9 2 353 341 325 303 273 252 239 231 234 241 243 246 247
138 136 133 132 127 118 111 102 94 99 102 95 85 81 79 77 71 65 63 59 61 69 65 50 39 39 40 38 33 31 33 35 33 29 27 27 25 23 23 22 21 21 22 22 21 20 18 17 15 15 15 13 13 16 16 12 10 14 17 18 18 14 9 7 9 12 14 14 13 11 8 3 358 353 346 334 313 282 251 232 226 228 233 236 233
141 138 136 133 124 115 112 108 100 101 105 99 89 78 76 76 69 63 65 56 49 64 70 57 45 43 43 39 32 28 30 31 28 24 24 26 25 22 21 21 20 19 19 20 19 17 16 15 13 11 11 11 11 14 16 13 11 12 14 16 19 19 16 13 12 9 8 10 11 11 8 4 360 358 355 347 333 308 272 242 224 220 224 226 221
137 133 130 125 119 114 111 108 104 101 103 103 95 81 75 76 68 61 62 52 44 60 74 68 56 51 48 43 37 30 28 29 25 20 21 25 23 21 20 19 18 18 18 17 17 15 13 14 13 10 9 9 10 12 13 12 11 10 10 12 16 19 20 20 18 14 8 4 3 4 6 6 6 5 0 353 349 337 283 225 201 200 204 202 196
134 132 131 127 122 118 114 111 109 103 100 101 96 87 83 86 83 76 67 52 46 53 58 61 65 59 51 46 43 37 30 26 23 19 19 23 23 21 19 18 17 18 17 16 14 13 12 12 11 10 8 7 9 12 12 10 9 9 10 11 14 18 20 21 20 17 12 6 1 356 357 2 8 12 12 11 14 14 358 196 165 167 174 174 171
132 131 129 125 120 117 117 117 117 115 112 103 93 87 83 78 83 93 84 67 62 56 46 44 54 55 44 39 42 40 30 22 21 21 20 22 23 20 18 17 18 17 16 15 13 11 11 11 9 9 7 5 6 10 11 8 8 9 11 13 15 17 20 21 20 18 14 12 11 6 0 2 8 14 20 26 32 35 32 40 89 125 143 154 157
134 132 129 126 123 120 118 117 116 119 125 117 101 90 77 60 60 75 86 79 73 63 50 44 43 44 39 31 34 40 34 25 24 24 23 23 23 20 17 16 17 16 15 15 13 11 10 10 8 8 6 3 4 7 9 7 5 6 10 13 14 18 21 21 19 17 16 16 18 19 20 22 23 23 26 30 35 41 49 55 61 78 102 122 136
138 137 133 129 125 122 119 114 110 115 126 121 105 92 84 72 60 53 57 69 66 51 48 49 44 41 36 24 22 32 36 31 25 21 20 22 22 19 17 15 15 15 14 13 12 10 9 8 8 8 5 3 3 4 5 3 1 5 11 13 14 20 25 25 21 16 15 18 22 24 26 28 31 32 33 33 34 37 46 57 65 72 83 97 114
143 140 134 128 125 123 120 116 113 120 126 118 102 90 84 80 74 59 52 60 52 32 35 49 52 41 31 18 12 20 31 31 24 19 19 21 20 17 16 16 15 14 12 12 11 9 7 6 7 7 6 5 4 2 360 359 1 8 14 15 15 20 26 27 25 19 16 21 25 28 29 30 30 33 35 35 34 35 39 48 58 67 77 91 106
144 139 131 127 127 123 119 117 118 127 132 122 106 98 95 84 81 75 57 49 35 11 19 36 42 35 34 24 14 14 20 24 25 25 23 21 20 19 17 17 15 11 11 11 9 7 5 4 4 5 5 7 8 6 2 1 4 10 15 17 20 24 27 28 25 19 17 22 25 27 30 32 32 34 37 38 38 38 41 46 53 62 70 79 94